This is the latest recevied weather packets stored in our database for station/object N8BAP. If no packets are shown the sender has not sent any weather packets the latest 10 day(s).
| Time | Temp. | Humidity | Pressure | Rain* | Wind** | Luminosity | Snow |
|---|---|---|---|---|---|---|---|
| 1777760014 | 10° C | 46% | 1021.6 hPa | 0 mm | - | 137 W/m² | - |
| 1777759712 | 9.44° C | 52% | 1021.8 hPa | 0 mm | - | 125 W/m² | - |
| 1777759407 | 10° C | 47% | 1021.6 hPa | 0 mm | - | 145 W/m² | - |
| 1777759104 | 10° C | 50% | 1021.5 hPa | 0 mm | - | 171 W/m² | - |
| 1777758802 | 10° C | 46% | 1021.6 hPa | 0 mm | - | 188 W/m² | - |
| 1777758498 | 10° C | 47% | 1021.5 hPa | 0 mm | - | 200 W/m² | - |
| 1777758194 | 10° C | 45% | 1021.4 hPa | 0 mm | - | 189 W/m² | - |
| 1777757892 | 9.44° C | 48% | 1021.2 hPa | 0 mm | - | 161 W/m² | - |
| 1777757588 | 10° C | 46% | 1021.4 hPa | 0 mm | - | 131 W/m² | - |
| 1777757288 | 10° C | 47% | 1021.4 hPa | 0 mm | - | 151 W/m² | - |
| 1777756980 | 10° C | 46% | 1021.6 hPa | 0 mm | - | 177 W/m² | - |
| 1777756676 | 10° C | 45% | 1021.4 hPa | 0 mm | - | 200 W/m² | - |
| 1777756372 | 10.56° C | 45% | 1021.3 hPa | 0 mm | - | 196 W/m² | - |
| 1777756069 | 11.11° C | 40% | 1021.4 hPa | 0 mm | - | 215 W/m² | - |
| 1777755767 | 11.11° C | 44% | 1021.2 hPa | 0 mm | - | 234 W/m² | - |
| 1777755464 | 10° C | 48% | 1021.4 hPa | 0 mm | - | 273 W/m² | - |
| 1777755154 | 10° C | 44% | 1021.3 hPa | 0 mm | - | 252 W/m² | - |
| 1777754852 | 10.56° C | 44% | 1021.2 hPa | 0 mm | - | 243 W/m² | - |
| 1777754549 | 10° C | 46% | 1021.4 hPa | 0 mm | - | 252 W/m² | - |
| 1777754247 | 10° C | 45% | 1021.5 hPa | 0 mm | - | 218 W/m² | - |
| 1777753944 | 10° C | 46% | 1021.4 hPa | 0 mm | - | 218 W/m² | - |
| 1777753638 | 10° C | 45% | 1021.3 hPa | 0 mm | - | 243 W/m² | - |
| 1777753337 | 10° C | 44% | 1021.5 hPa | 0 mm | - | 229 W/m² | - |
| 1777753034 | 10° C | 46% | 1021.4 hPa | 0 mm | - | 239 W/m² | - |
| 1777752731 | 10.56° C | 44% | 1021.6 hPa | 0 mm | - | 206 W/m² | - |
* Rain latest hour (hover to see other rain measurements)
** Current wind speed in m/s (hover to see current wind gust speed)